Wind_Speed
8 9 8 6 6 5 3 2 2 4 5 6 8 8 8 8 9 10 10 11 10 9 9 9 9 9 7 6 5 5 5 5 5 7 8 9 10 9 7 7 6 5 5 5 5 4 3 2 4 4 3 4 5 4 3 3 2 2 3 2 4 4 6 8 11 12 12 12 12 13 14 12 10 9 5 6 12 14 12 13 14 11 11 12 12 12 13 15
9 9 7 6 5 4 3 2 2 4 5 6 8 8 8 9 10 11 11 11 10 9 9 9 8 8 7 6 5 5 6 6 6 8 10 9 8 7 6 6 6 5 5 5 5 4 3 3 4 3 4 4 5 5 3 3 2 3 4 3 7 8 9 11 13 12 10 10 10 11 12 11 9 6 3 8 12 12 11 11 11 10 10 10 11 12 14 15
10 9 7 6 5 4 2 1 3 4 5 7 7 7 8 10 11 11 11 11 10 9 8 8 8 7 7 6 6 7 6 6 8 8 8 7 6 6 6 6 5 5 5 4 4 4 3 5 4 3 8 2 6 3 3 3 3 4 4 3 7 9 11 9 9 8 7 8 8 8 10 11 8 6 6 11 11 8 9 10 10 10 10 11 12 14 15 17
10 8 7 5 4 3 1 2 3 4 6 7 7 8 9 10 11 11 11 10 9 8 8 8 7 7 7 7 7 7 5 5 8 9 7 7 7 7 6 5 5 4 5 5 4 5 5 6 5 6 10 3 5 1 1 3 1 3 3 4 6 7 9 7 5 6 7 8 8 7 8 11 11 8 8 13 13 9 9 11 12 13 13 14 15 17 18 19
9 7 6 5 4 3 1 2 3 5 7 7 8 9 10 10 11 10 10 9 8 8 8 8 7 7 7 7 7 7 5 4 8 9 8 8 7 6 6 5 4 4 5 5 5 5 5 6 7 9 8 1 3 2 1 3 1 1 1 3 4 5 6 5 6 7 8 8 8 7 7 11 12 10 9 10 12 11 11 13 14 15 16 17 19 20 22 23
8 7 5 5 4 2 2 2 4 6 7 8 8 9 10 10 10 9 9 8 8 8 8 7 7 7 7 7 6 8 8 6 8 9 8 7 6 5 5 4 5 5 5 5 5 4 4 6 6 6 3 2 2 1 2 3 2 2 2 0 1 2 3 6 8 7 8 9 9 8 9 13 14 13 11 9 11 13 14 15 16 17 18 19 22 24 25 26
7 6 4 3 3 2 2 3 6 7 7 8 9 9 10 10 9 9 9 8 8 7 7 7 7 6 6 6 5 9 11 8 8 8 6 6 5 6 5 4 5 4 4 5 5 5 5 7 5 1 1 0 2 1 1 4 5 4 3 3 2 3 5 7 8 8 10 10 10 8 9 13 17 17 16 13 12 14 16 17 18 19 20 22 23 25 27 28
6 5 4 2 2 3 3 5 7 7 7 8 9 9 9 9 9 8 8 7 7 7 7 7 7 6 7 6 6 11 10 6 7 7 6 5 5 5 4 4 4 3 5 7 7 7 6 6 5 2 3 3 3 3 3 6 7 5 4 4 4 6 7 8 10 12 12 12 11 10 10 13 16 18 19 18 16 17 18 19 20 20 21 22 24 26 28 30
7 6 5 2 1 2 3 6 7 6 7 8 9 9 9 9 8 7 7 8 8 9 8 8 7 7 8 7 9 11 7 5 7 6 5 5 4 4 3 4 5 6 8 9 8 9 7 6 6 6 7 6 5 6 5 7 7 5 5 6 7 9 11 11 14 17 15 12 10 10 13 14 16 17 19 20 20 20 21 21 22 21 22 22 23 25 28 30
8 7 6 4 2 1 4 7 6 6 7 8 9 9 8 7 7 8 8 9 9 9 8 7 7 6 6 7 9 10 7 5 6 5 5 4 4 5 5 7 8 9 9 10 10 11 9 7 7 8 9 8 8 9 8 9 9 9 7 7 11 13 14 16 17 20 16 12 9 8 12 14 17 18 18 21 23 24 25 25 25 24 24 23 23 25 27 30
7 7 6 6 3 3 6 6 5 6 7 8 8 7 7 7 8 9 9 9 9 9 8 6 7 7 7 7 7 7 6 5 5 6 6 5 6 7 8 9 9 10 10 11 11 12 11 10 8 7 7 8 8 8 8 7 7 10 10 9 14 14 14 17 17 19 17 12 10 7 12 15 17 17 19 22 24 26 27 27 27 27 26 25 23 24 26 28
5 7 6 5 4 6 6 5 5 6 7 7 7 7 8 8 9 8 8 9 9 9 8 7 7 8 8 6 4 6 6 6 7 7 6 7 8 9 10 10 10 11 11 11 11 12 13 11 9 8 8 7 7 8 10 8 4 7 12 12 15 14 12 16 16 18 18 14 13 9 12 17 19 19 21 24 26 28 30 30 30 30 29 28 25 24 25 28
5 7 6 6 7 6 6 5 6 6 6 6 7 8 8 8 8 8 7 7 8 8 8 8 8 6 5 3 4 7 8 8 8 8 8 9 10 10 11 11 11 12 12 12 12 13 13 11 11 11 9 6 7 9 10 11 8 6 10 12 13 10 9 14 13 16 19 17 16 12 9 16 22 22 23 25 28 30 31 32 33 32 32 31 28 26 26 28
7 7 7 8 7 6 5 5 6 6 6 7 8 9 8 8 8 7 7 6 6 6 7 8 7 5 4 4 8 9 8 9 9 9 10 10 10 11 12 12 12 12 13 13 13 14 13 11 11 10 10 7 4 8 10 12 11 8 5 7 12 9 9 13 12 14 19 19 18 14 11 17 24 22 22 25 27 30 31 32 34 34 34 33 31 28 27 29
9 9 9 8 7 6 6 5 6 7 8 9 9 9 8 8 7 7 7 7 6 5 6 6 6 6 6 7 10 10 10 10 10 11 12 11 11 11 12 12 12 13 13 13 14 13 11 10 10 10 10 8 2 6 10 7 8 9 5 6 12 11 11 11 12 15 18 20 19 14 12 17 22 21 22 25 26 28 29 30 32 33 34 33 32 29 28 30
10 9 8 7 6 6 6 6 7 9 9 9 9 9 9 9 8 6 6 6 6 6 7 7 7 8 8 10 11 11 11 11 11 12 13 12 12 12 12 12 13 14 13 13 12 11 10 9 9 10 10 9 4 5 5 1 7 10 9 9 12 13 13 12 15 16 18 21 18 12 13 17 21 22 23 25 24 25 26 27 28 30 32 32 31 30 29 31
10 9 8 7 6 6 6 8 9 10 10 9 9 8 8 7 7 7 6 7 8 8 8 9 9 9 10 11 12 11 12 13 13 14 14 13 13 12 12 13 13 13 12 13 12 12 12 9 7 9 8 7 5 3 2 4 11 13 12 11 12 15 16 15 18 18 19 21 18 15 17 20 21 21 23 22 21 22 23 24 26 26 29 30 31 29 29 34
9 8 7 7 6 7 8 10 10 10 9 9 8 8 7 7 7 6 5 6 8 8 10 10 8 10 12 12 12 14 15 14 14 14 14 14 14 13 12 13 14 13 14 15 14 13 12 8 7 6 6 8 9 8 8 8 12 14 15 15 15 17 16 16 21 21 20 20 18 16 18 22 21 22 22 18 17 20 21 22 23 23 25 27 28 27 30 36
9 8 7 7 8 9 11 11 11 10 9 9 9 9 10 11 10 8 7 7 8 9 13 13 11 13 15 13 15 17 15 13 14 15 14 14 14 14 14 14 15 14 14 13 11 12 11 7 6 6 8 12 14 15 13 9 9 12 14 15 16 17 17 20 22 21 22 21 17 13 16 22 23 23 20 16 17 21 21 21 21 22 23 24 25 28 32 36
8 8 8 8 10 11 12 12 12 12 11 10 11 11 13 14 12 10 9 9 12 15 18 18 17 18 17 15 15 15 13 12 15 15 13 13 13 13 14 15 14 12 11 11 11 12 11 8 7 10 12 13 14 13 13 11 9 10 12 13 17 20 22 25 22 20 22 23 20 15 17 22 23 21 17 16 20 21 21 22 22 22 23 24 25 28 32 35
8 8 9 11 12 12 13 13 13 13 13 13 13 13 17 17 14 11 10 12 17 18 18 18 18 18 17 16 15 14 13 15 15 13 12 13 12 12 14 14 12 11 12 12 11 10 9 8 11 12 11 12 11 11 12 13 10 11 12 12 17 24 28 29 22 19 23 24 22 17 17 20 21 20 17 19 23 23 23 22 22 24 25 26 27 30 34 35
9 10 12 12 13 13 14 14 15 15 15 15 15 15 17 17 16 14 14 18 19 17 17 17 16 15 15 15 15 14 13 14 13 12 12 12 11 11 12 13 12 11 11 10 9 9 9 9 11 10 10 10 9 11 14 14 11 10 10 13 19 25 32 32 24 21 23 25 26 22 18 17 18 21 21 23 27 26 23 22 23 26 26 27 28 31 35 37
11 12 13 13 13 14 15 16 16 15 14 14 14 13 12 13 13 14 16 18 17 16 17 17 15 15 14 13 14 12 11 11 11 12 12 11 11 11 11 13 13 11 9 7 7 8 9 10 9 9 10 10 11 14 14 14 12 8 10 15 20 25 33 33 30 26 21 21 25 24 21 19 19 21 23 26 28 26 23 21 23 25 26 28 30 34 39 43
13 13 13 13 14 15 16 17 15 13 12 11 10 9 7 7 8 10 14 17 17 15 15 15 14 15 14 13 11 9 10 11 11 12 12 11 11 11 12 13 12 10 9 8 7 7 9 8 8 9 10 12 14 16 15 15 14 9 11 15 20 28 32 30 28 27 23 20 19 15 16 18 15 16 25 27 25 24 22 20 22 25 27 29 32 38 45 49
13 13 13 13 15 15 16 15 12 10 8 8 7 8 6 4 4 6 9 13 17 16 14 14 13 14 14 12 11 9 9 10 11 12 12 12 12 11 11 11 11 9 8 7 6 7 8 7 8 10 12 15 14 15 16 17 16 10 9 14 21 30 32 26 23 25 25 19 15 12 9 10 11 16 24 27 25 26 23 20 22 24 27 30 36 43 47 48
13 13 12 13 13 14 14 11 8 6 6 6 6 7 5 2 1 3 6 7 13 17 15 14 13 14 14 12 13 11 8 11 12 12 12 12 11 10 10 10 9 7 6 5 4 6 7 7 10 12 14 15 13 15 16 18 19 12 11 18 25 30 28 22 20 23 21 17 19 18 9 10 15 19 26 29 27 26 23 20 21 24 27 33 40 44 46 45
13 12 11 11 11 12 10 6 3 4 6 5 6 5 5 4 1 3 4 2 7 15 14 13 12 13 14 13 14 13 10 12 12 12 12 11 11 11 9 9 8 5 5 4 4 6 7 8 10 13 15 15 16 18 17 19 21 17 19 24 29 30 24 19 20 21 19 21 22 13 9 14 18 20 27 28 23 20 21 19 19 23 28 35 40 43 45 46
12 11 10 10 10 9 7 4 1 4 6 4 4 4 5 6 4 4 3 2 6 12 12 13 12 12 14 14 14 13 11 12 12 11 12 11 11 10 8 9 7 5 5 3 4 7 9 8 9 14 16 17 20 20 18 20 20 22 23 26 32 30 20 17 19 19 17 19 14 4 13 14 16 26 26 20 17 14 14 15 18 26 32 37 41 44 46 48
10 9 9 8 8 6 4 2 3 5 4 2 3 4 4 5 5 4 3 1 5 10 11 12 12 12 14 14 14 13 12 12 12 12 12 12 11 10 9 8 6 5 5 5 7 10 11 10 9 13 17 20 22 19 18 19 20 24 24 28 34 26 18 19 17 16 14 11 7 10 23 14 15 29 21 9 9 8 10 18 25 31 34 38 42 44 46 47
8 7 7 6 4 3 2 3 4 3 2 1 2 4 4 4 3 2 1 2 5 8 10 11 12 13 13 14 13 12 12 12 12 12 12 12 12 11 9 8 8 6 6 10 10 12 16 13 11 13 15 19 23 21 19 17 18 22 23 31 36 26 18 14 11 13 10 7 6 15 27 20 12 15 9 7 11 14 23 32 33 35 37 39 40 41 43 46
6 5 4 3 1 0 0 1 2 2 2 2 2 3 4 4 3 2 1 3 4 6 9 10 11 12 13 13 13 13 12 12 12 11 12 11 10 10 8 9 11 5 6 12 12 14 18 15 13 13 13 18 24 23 19 17 16 17 22 30 33 28 20 7 7 12 5 4 11 20 32 26 10 7 12 18 23 30 39 39 35 35 34 33 34 40 48 54
4 3 3 3 3 4 4 6 6 6 5 5 3 2 3 4 5 4 1 3 5 6 8 9 11 13 13 13 14 14 12 13 14 13 14 14 11 12 10 12 15 9 7 13 14 15 17 15 14 14 15 17 24 25 19 17 15 13 20 28 24 18 14 6 5 8 5 8 15 24 32 21 12 16 20 25 34 41 41 33 28 28 29 33 40 49 57 57
4 4 5 5 6 6 6 7 7 7 7 6 5 4 4 3 4 4 3 3 5 6 8 9 12 13 13 14 15 16 13 14 17 15 15 15 14 14 13 13 14 11 11 13 14 15 15 12 12 14 14 17 26 26 19 19 17 11 18 24 16 8 6 5 5 4 7 17 25 30 25 14 15 20 23 33 42 38 30 25 25 30 37 46 52 57 57 54
7 7 7 7 7 8 8 8 8 7 7 7 6 5 4 4 4 3 4 5 5 7 8 9 12 13 13 16 17 17 16 16 18 17 15 16 15 13 14 14 11 12 13 12 11 12 11 8 10 14 14 16 26 23 17 18 12 9 16 18 13 8 4 3 4 4 8 20 30 27 14 8 15 21 30 38 34 24 23 27 34 41 48 53 57 57 53 52
10 10 9 9 9 9 9 8 7 7 7 7 6 4 4 5 4 4 5 6 5 8 9 8 11 13 13 15 16 17 17 16 18 19 16 17 16 13 15 15 12 14 13 10 9 10 11 9 12 17 15 17 25 20 15 16 8 8 16 15 15 14 10 11 13 14 16 18 19 17 13 15 21 30 35 28 21 25 31 36 41 45 51 56 56 53 51 53
13 12 12 11 10 9 8 7 7 7 7 6 5 5 7 6 5 5 6 7 6 8 10 7 10 13 11 12 14 16 16 15 16 17 16 16 15 13 16 15 14 14 13 13 12 9 11 13 15 16 14 17 23 17 13 12 8 12 14 14 19 15 12 15 16 18 17 11 11 15 19 23 28 32 25 16 23 36 35 37 44 49 54 56 53 53 55 55
13 12 11 10 9 8 8 8 8 8 8 7 5 7 9 8 7 7 7 8 7 9 10 8 9 12 11 11 13 13 14 14 14 14 14 15 14 15 16 15 14 14 14 14 12 10 14 15 13 12 13 20 23 16 14 10 9 15 14 16 20 12 7 10 9 11 10 6 11 19 21 23 25 21 18 24 34 33 32 40 50 53 54 54 54 56 56 54
12 11 10 10 9 9 9 8 8 8 8 7 7 10 11 9 9 8 7 8 7 8 10 10 9 10 11 12 13 13 13 14 15 14 14 13 14 16 17 14 14 14 14 14 13 13 15 15 12 9 13 23 21 14 14 12 13 18 18 19 18 9 7 10 7 6 6 4 8 20 25 24 21 19 24 34 32 28 37 49 53 53 51 51 54 57 56 55
12 11 11 11 12 12 10 8 9 10 8 6 8 11 11 9 9 9 8 7 7 8 10 11 10 10 11 12 13 14 15 16 16 15 14 14 15 18 17 14 14 15 15 15 14 14 13 10 10 11 15 21 18 13 13 15 19 20 17 18 16 9 7 13 13 9 7 5 6 17 22 15 17 28 33 30 26 31 44 51 52 51 49 52 56 57 56 55
11 10 11 11 11 12 11 10 11 10 8 9 12 12 11 10 10 9 8 8 8 9 10 11 10 11 12 13 13 15 17 18 17 15 14 16 18 18 15 14 17 17 15 15 15 16 15 9 12 18 20 18 14 14 18 22 21 17 15 16 17 14 11 14 16 13 8 3 4 10 13 17 28 34 28 24 31 41 47 50 51 49 51 57 58 56 55 54
11 10 12 11 10 11 12 12 13 10 10 14 14 12 12 10 10 9 8 8 9 9 10 11 11 12 13 14 15 16 18 19 17 15 16 18 19 17 16 18 20 17 15 17 16 15 16 14 16 23 24 20 17 18 21 22 19 17 17 17 16 14 12 11 7 10 8 6 10 10 12 30 41 29 21 30 39 46 49 49 48 49 56 60 57 56 56 56
11 11 13 11 11 13 13 13 14 13 14 16 14 13 12 10 9 9 9 9 9 10 10 11 13 13 13 15 16 16 19 19 16 16 18 19 19 19 20 21 20 18 17 17 16 15 18 17 17 22 23 19 18 18 18 17 17 20 19 16 15 13 13 10 5 12 15 15 21 18 15 33 42 30 30 41 44 48 51 46 45 53 60 59 57 58 57 57
13 14 15 13 13 14 12 13 16 15 15 16 14 13 12 10 9 9 10 10 10 10 11 12 14 14 14 16 16 17 20 18 15 18 20 19 20 22 22 21 19 19 18 16 15 17 16 14 18 25 23 18 16 15 15 14 15 21 22 20 19 18 19 19 16 20 19 16 21 15 13 30 43 41 42 45 46 51 49 43 48 57 60 58 58 59 57 58
15 16 16 15 15 15 15 16 17 16 16 16 14 13 12 11 10 9 10 11 11 11 12 13 14 15 16 16 17 18 19 17 18 21 21 20 23 24 22 21 20 19 19 18 17 17 14 11 17 21 18 16 15 14 17 21 22 25 27 26 26 24 24 25 23 21 16 16 20 11 14 37 52 51 50 48 50 51 45 45 55 58 56 56 58 58 58 59
16 18 18 17 15 15 17 19 17 16 17 16 14 13 11 10 10 10 10 11 13 13 13 13 15 16 17 17 17 18 18 18 20 22 22 23 24 24 23 22 21 21 21 20 19 19 16 14 14 12 7 8 11 13 21 29 28 27 29 30 29 27 27 26 22 16 14 22 27 20 25 47 59 58 55 54 52 49 46 53 59 56 54 56 57 58 59 59
14 17 18 18 17 17 19 20 17 16 17 15 14 14 12 11 11 11 11 12 13 14 14 14 15 17 17 18 19 19 20 21 22 22 23 24 24 24 24 23 23 22 21 21 21 19 18 17 15 13 12 14 19 25 28 26 26 28 29 30 30 29 29 26 19 17 22 29 33 33 35 48 58 59 58 56 51 46 51 59 59 56 55 56 56 57 57 54
15 16 16 16 16 17 19 19 17 16 16 15 14 14 13 12 12 12 12 13 14 15 15 15 16 17 18 19 21 21 22 23 23 23 25 25 25 25 25 24 23 22 21 21 21 19 20 21 19 16 18 20 27 32 27 21 24 29 28 29 30 29 30 25 19 23 28 24 29 41 44 45 55 60 57 53 47 48 57 60 57 57 57 55 55 55 53 51
19 19 18 17 16 17 18 18 17 17 16 15 15 14 14 14 13 13 13 14 14 15 16 16 17 18 19 20 22 23 23 24 24 25 25 26 27 26 25 24 23 22 21 21 21 20 21 23 21 19 21 25 29 29 23 21 26 29 28 29 29 29 30 25 21 27 29 22 30 46 48 47 55 57 51 48 48 54 60 58 55 56 56 55 54 53 51 52
20 20 20 19 18 18 18 17 17 16 16 15 15 15 15 14 14 14 13 14 15 15 16 17 18 18 19 21 22 24 24 25 26 27 27 27 27 26 26 25 23 22 22 21 21 21 21 22 21 21 27 31 30 24 20 24 29 31 32 30 29 29 28 23 23 29 29 28 37 45 47 50 53 48 45 48 52 57 59 56 54 56 55 54 53 52 52 55
21 20 19 18 19 19 18 17 16 15 15 15 14 15 15 14 14 14 14 15 16 16 17 18 19 19 20 21 23 24 24 24 25 28 28 28 27 26 25 24 24 23 23 22 22 22 21 22 23 24 31 34 28 21 22 28 31 33 29 24 24 25 23 20 23 28 31 38 45 46 47 50 47 42 44 51 55 59 58 55 56 57 55 53 52 53 54 55
21 21 20 18 19 19 17 17 16 15 15 15 14 14 15 15 15 15 15 16 16 17 18 19 19 20 21 21 23 24 24 23 24 27 27 27 26 25 23 24 24 24 24 23 22 23 22 23 25 26 28 32 29 24 28 34 33 30 23 18 19 21 22 22 23 27 33 42 48 46 45 46 44 44 49 54 58 60 58 56 56 55 52 50 51 52 53 54
21 22 21 19 18 18 17 16 16 15 15 14 14 14 15 15 16 16 16 16 17 18 19 20 20 21 22 24 25 25 24 25 25 26 26 25 25 24 23 24 24 23 24 24 23 24 23 23 26 25 24 30 31 28 32 33 24 18 18 20 21 21 23 25 26 31 40 45 44 42 44 45 45 48 54 60 62 59 56 55 53 51 48 48 49 51 52 54
Wind_Direction
168 169 169 165 164 165 153 113 41 6 346 345 354 3 18 22 15 10 7 6 6 7 10 9 6 2 7 15 14 14 13 7 2 9 8 8 13 10 10 13 13 17 23 27 24 21 12 31 44 33 49 49 20 355 4 23 28 113 91 1 303 255 240 276 284 291 300 292 292 294 301 311 309 317 325 273 285 301 306 305 309 313 311 313 316 319 322 324
171 172 168 165 167 164 147 97 24 355 345 352 1 13 24 19 12 8 5 5 5 8 9 7 5 2 6 11 12 13 12 8 8 17 20 20 18 15 20 18 17 24 28 31 27 29 18 49 62 42 79 51 351 345 347 35 58 123 98 324 274 262 276 291 291 293 296 293 299 303 310 319 322 333 306 257 277 306 309 302 306 306 305 310 314 315 317 319
172 171 166 167 166 156 142 57 13 351 349 360 11 23 23 14 9 6 5 6 6 7 5 1 2 6 9 12 15 17 23 23 22 29 29 27 28 25 27 23 28 32 38 47 45 61 59 72 76 79 106 128 295 335 342 12 62 118 120 266 260 270 284 289 289 295 306 309 316 319 319 322 328 341 316 289 295 309 302 298 295 292 295 300 304 308 310 311
168 164 162 164 161 154 123 34 8 352 360 13 26 27 17 10 7 6 6 6 6 1 357 359 3 12 17 20 21 21 34 32 30 41 39 37 39 31 31 33 38 41 48 61 62 79 78 80 87 87 107 174 280 51 336 343 37 147 160 240 255 274 283 298 322 334 337 332 328 331 322 316 326 336 311 305 316 317 299 298 296 297 302 306 311 312 314 316
153 152 156 155 153 149 80 27 4 4 17 30 32 21 12 9 6 6 7 4 1 355 356 1 8 20 24 27 27 28 39 35 34 43 45 43 40 34 37 39 47 50 53 62 57 71 80 87 87 71 84 261 319 87 301 347 7 155 134 245 253 275 290 330 358 356 344 337 328 330 319 309 320 324 309 310 317 310 301 302 301 305 309 314 318 319 322 324
137 136 137 139 142 120 51 19 13 23 35 37 25 14 10 9 7 6 5 2 359 359 4 10 22 31 36 41 46 53 55 51 43 44 44 42 39 37 39 43 51 51 51 57 47 50 73 84 78 59 75 265 339 50 323 12 65 77 60 54 239 307 353 360 358 356 343 341 335 331 317 310 319 320 316 316 310 305 306 308 308 311 314 317 321 324 326 327
146 144 132 123 112 69 34 19 28 39 43 31 17 12 11 9 8 8 6 6 8 14 22 31 43 46 53 56 70 70 57 48 46 43 40 37 37 40 42 48 54 54 46 43 42 44 56 74 82 82 170 279 10 54 47 62 70 63 61 66 61 36 22 8 0 357 348 345 339 332 316 314 322 322 320 317 309 309 310 311 312 313 317 320 324 327 327 325
171 173 175 158 71 38 21 30 40 49 37 20 14 13 12 10 10 13 15 21 28 37 45 54 58 61 63 59 71 69 53 45 48 39 38 39 37 43 48 56 59 59 47 38 42 47 52 75 94 117 92 65 49 79 97 75 62 51 58 64 53 35 18 5 4 2 354 347 340 328 317 315 318 316 317 318 316 316 314 312 313 314 317 321 325 326 326 324
180 182 182 182 8 9 29 44 50 46 26 16 15 13 12 14 20 28 36 43 47 52 56 64 68 67 62 54 63 69 59 49 50 38 40 41 40 48 46 53 51 45 47 46 48 51 54 70 90 96 84 80 76 76 77 64 58 51 53 53 38 26 13 4 5 2 353 348 345 320 314 315 312 311 312 316 321 320 317 314 313 314 316 320 323 325 326 325
180 179 164 173 226 18 52 53 51 36 19 16 15 14 18 27 43 53 58 59 60 62 66 72 70 65 67 58 58 68 63 49 49 38 36 37 40 41 42 50 47 46 52 54 57 57 61 71 84 89 81 83 82 72 67 59 56 51 46 45 32 16 3 5 3 358 351 348 348 306 300 308 307 307 305 311 318 319 318 315 313 313 315 317 320 324 328 329
170 172 172 184 185 81 63 55 45 29 18 17 17 22 38 54 65 69 69 66 63 65 67 75 71 61 62 57 51 64 61 48 46 35 29 36 43 45 51 56 52 52 55 56 60 61 64 70 76 79 65 74 82 64 47 37 44 39 29 30 22 2 355 5 357 350 351 349 345 303 285 296 298 297 296 304 311 314 316 314 312 312 312 311 313 319 326 330
165 170 179 168 116 75 64 52 38 27 21 24 32 49 65 72 77 77 74 69 63 63 62 62 62 55 55 57 55 63 61 49 42 38 40 47 52 55 57 59 58 58 60 59 61 61 60 59 59 61 52 59 74 58 38 29 42 27 23 28 11 349 350 3 352 346 351 348 337 310 283 289 292 291 294 301 306 310 313 313 312 309 308 306 306 312 321 327
176 165 153 118 90 72 62 46 36 32 34 45 61 75 79 79 82 79 75 72 69 68 66 62 57 53 63 76 60 56 53 45 44 50 55 55 57 60 59 63 63 62 62 57 56 54 52 47 43 47 45 45 63 60 40 37 47 29 28 30 10 353 343 345 345 346 348 345 333 313 281 280 285 290 295 301 305 308 312 312 311 308 305 303 301 305 314 323
161 144 119 100 83 70 58 44 43 48 60 72 80 84 82 82 81 76 75 75 75 68 65 67 58 50 73 71 53 53 53 50 55 58 58 58 58 60 61 63 61 57 54 49 47 46 41 39 35 34 35 30 50 57 40 33 33 29 41 20 10 12 349 336 334 339 341 342 333 315 288 279 283 290 298 304 306 308 310 311 310 308 304 302 300 300 308 317
142 123 106 93 80 70 58 53 62 72 81 84 85 84 80 77 73 76 81 76 75 66 53 58 52 51 73 72 55 54 57 56 57 54 53 56 56 58 58 57 55 49 44 38 38 37 27 23 23 23 29 22 18 69 57 38 11 24 51 4 359 7 4 348 328 329 338 338 331 311 287 279 282 293 305 309 309 307 309 311 311 309 305 302 300 299 304 313
126 113 101 89 80 71 65 73 82 87 89 89 87 83 77 71 68 74 85 77 63 52 47 53 57 58 66 64 53 52 56 55 54 51 49 51 51 52 51 47 43 38 34 29 26 22 9 360 6 13 21 23 45 111 113 281 342 17 33 12 2 3 3 353 334 330 332 330 322 298 276 277 284 295 306 310 308 306 309 313 314 313 309 304 300 299 303 312
118 109 98 90 83 77 84 91 94 95 93 90 85 78 71 66 64 66 83 81 54 49 58 59 60 62 63 62 58 56 57 52 49 46 42 43 44 43 39 32 29 27 21 17 12 6 1 354 0 10 11 22 48 119 160 346 358 9 13 8 4 2 358 345 334 326 323 324 316 294 277 277 286 297 308 311 305 304 310 315 317 317 315 309 303 301 307 314
115 107 98 93 89 93 100 99 99 98 94 92 85 78 70 60 56 62 79 63 43 57 67 60 62 67 67 66 61 54 51 47 45 41 36 36 34 31 29 22 19 15 7 7 4 359 3 0 346 331 333 6 24 33 37 26 13 5 5 6 359 355 350 335 328 323 324 322 311 295 282 283 292 303 312 312 303 302 309 314 316 317 316 311 306 306 311 314
114 108 103 101 103 107 106 102 100 96 94 91 81 73 67 59 52 61 77 70 68 75 66 60 60 62 60 56 52 48 45 41 40 36 30 28 26 24 20 15 15 13 4 359 352 354 3 348 321 322 352 14 21 25 28 24 12 4 6 7 355 344 336 331 327 324 326 323 314 301 282 281 291 306 316 312 305 305 307 310 313 314 313 312 310 309 311 312
116 114 112 113 114 111 107 104 101 98 94 85 75 70 69 64 55 64 86 85 72 65 59 54 50 51 49 43 44 44 39 35 34 29 21 22 21 17 15 13 13 7 355 348 346 357 353 332 1 25 24 23 21 21 19 10 356 348 357 359 348 341 333 333 332 326 327 321 318 312 282 273 284 303 317 311 306 306 305 306 306 307 307 308 309 309 310 310
124 122 120 118 116 113 111 110 105 99 92 83 78 73 72 71 66 70 80 70 58 54 54 49 44 46 43 39 38 34 29 30 29 19 12 18 15 10 12 10 5 353 346 347 352 353 337 346 33 36 25 21 15 13 12 6 346 332 341 333 335 340 334 334 336 327 324 317 319 320 287 277 288 302 313 313 307 302 302 304 302 303 305 304 306 307 309 308
128 123 122 121 121 121 119 113 104 96 89 84 80 75 75 75 70 65 64 63 57 52 53 47 43 44 40 38 35 29 24 23 19 9 9 14 8 7 8 2 358 351 347 351 353 350 353 22 39 27 16 13 1 5 9 2 344 327 324 307 316 335 335 334 336 327 319 313 317 316 291 277 282 292 307 313 306 299 298 302 304 306 305 303 305 308 309 309
125 123 126 128 131 130 124 114 103 95 88 81 77 74 74 71 63 57 57 61 57 52 55 50 42 41 38 33 30 28 20 13 9 5 7 6 2 3 1 357 357 351 345 351 354 359 19 36 32 15 7 357 353 6 6 357 351 325 303 298 307 331 335 329 328 326 317 312 312 302 286 276 270 286 311 313 304 300 298 301 307 309 308 306 307 310 311 313
126 129 133 137 140 136 127 117 106 96 83 70 65 58 55 55 57 56 54 55 51 47 50 47 40 37 36 29 21 16 10 7 4 3 4 1 359 358 355 354 354 348 342 350 357 10 27 31 17 5 354 353 359 3 358 355 359 333 298 297 309 329 334 322 320 321 317 322 320 296 289 288 280 305 320 313 307 304 299 300 308 312 311 309 310 314 317 317
131 135 140 144 145 140 132 121 108 94 71 56 46 33 29 41 64 55 44 46 41 35 37 36 31 30 31 26 17 8 2 2 357 358 360 356 356 355 354 352 347 349 351 349 352 11 23 20 6 358 354 2 2 352 352 353 356 344 303 304 318 331 331 320 320 321 317 325 326 310 307 292 296 329 323 311 311 306 299 300 309 314 312 311 316 319 318 317
135 139 143 147 148 145 140 126 108 77 41 34 25 21 22 13 71 26 20 41 28 22 28 26 21 22 20 18 16 9 358 356 355 356 355 351 356 355 351 350 347 353 358 345 338 353 1 2 3 1 1 7 358 346 350 351 349 345 325 324 330 335 330 321 322 317 307 312 311 304 303 281 291 321 323 314 307 298 296 300 307 313 312 314 319 318 315 313
136 139 143 148 151 152 152 145 116 29 10 16 13 26 40 33 73 7 9 82 9 9 20 21 20 17 13 15 13 9 4 359 355 352 352 351 357 355 347 349 348 348 356 342 320 333 337 346 2 7 6 5 358 350 347 347 344 337 332 333 337 339 332 321 316 304 296 309 308 297 319 311 300 316 321 311 296 288 297 301 303 310 312 315 317 314 312 311
136 138 141 147 153 160 169 186 222 344 351 2 12 42 50 42 60 32 35 112 355 1 10 13 17 12 10 11 8 10 7 358 355 353 354 355 356 355 347 346 345 349 4 345 315 324 319 322 348 1 5 5 359 351 341 341 340 334 333 334 340 342 333 320 309 295 299 309 299 330 359 335 308 315 312 297 293 295 295 293 300 309 312 314 314 312 310 309
136 139 142 150 158 171 189 226 290 321 335 357 40 58 47 38 42 31 57 72 346 357 3 7 12 6 6 6 4 7 2 357 359 356 355 355 355 355 348 345 342 337 358 359 349 344 329 315 321 343 358 2 356 347 339 339 335 333 333 335 341 346 335 323 308 293 296 288 266 350 359 349 308 314 308 284 304 298 289 301 310 312 310 313 316 315 312 311
141 146 152 159 169 200 238 282 301 315 357 51 77 51 32 29 14 14 64 336 333 353 359 2 6 3 2 2 2 3 2 3 2 356 356 355 355 355 348 345 335 305 329 357 354 348 340 322 308 325 346 352 349 346 343 341 338 337 337 337 342 349 342 325 314 307 285 260 289 331 342 337 309 312 311 310 318 311 313 315 312 311 313 320 324 321 319 317
149 155 160 171 181 200 357 14 29 63 68 61 77 39 28 33 19 36 98 320 324 347 356 356 359 2 360 359 4 6 4 4 2 357 356 356 355 350 343 349 349 328 343 358 353 344 338 321 308 314 322 333 342 346 344 345 347 339 336 341 344 348 350 339 330 330 270 259 319 320 328 326 296 288 299 306 316 318 318 316 314 319 324 329 326 320 317 314
139 135 132 117 103 98 84 74 65 62 63 57 62 56 45 42 37 58 80 327 328 343 355 354 354 360 0 1 6 6 5 4 3 1 359 0 358 358 4 5 6 12 358 351 349 342 333 318 307 302 303 324 342 345 344 348 350 336 336 349 354 346 349 350 330 332 282 289 314 320 324 316 288 303 307 313 319 317 316 317 323 329 325 318 315 314 314 314
121 108 105 98 90 88 78 67 58 56 58 54 64 82 76 64 51 52 49 12 351 352 358 356 355 358 0 5 7 5 6 6 4 2 0 1 359 4 14 10 9 12 350 342 345 343 336 319 300 299 305 328 343 345 345 346 348 350 347 354 3 347 335 334 308 314 303 300 312 319 315 300 305 314 314 317 317 314 316 325 328 320 313 312 314 316 317 320
102 96 97 91 83 82 76 70 65 61 57 56 66 79 78 82 75 56 44 32 9 358 356 355 358 360 1 5 6 4 4 5 2 359 358 358 357 360 3 0 3 1 349 345 345 340 336 311 292 306 309 322 339 342 343 343 341 349 346 345 351 337 291 287 297 308 303 298 309 315 305 310 324 314 312 314 311 310 318 319 314 309 311 314 316 319 321 322
89 90 90 87 84 80 74 67 62 58 57 60 62 65 82 90 78 58 39 29 17 3 356 349 359 8 6 360 1 3 2 1 359 356 354 354 353 351 350 352 351 348 349 347 340 331 328 312 299 307 301 314 335 337 337 343 333 330 336 330 335 327 277 266 276 287 296 294 304 309 298 308 312 309 312 310 305 312 311 308 308 311 316 318 319 321 321 322
86 87 87 86 81 73 63 57 59 57 57 63 60 65 82 90 73 58 42 33 30 17 9 0 5 15 12 356 359 4 358 356 357 353 349 346 346 345 342 343 341 342 346 344 339 332 327 323 312 307 301 321 335 332 331 337 323 331 333 319 329 324 275 272 279 291 300 291 296 304 301 307 312 315 314 303 312 318 311 308 313 317 320 320 319 320 319 320
88 87 87 83 75 68 62 61 68 69 65 67 69 72 81 84 71 61 49 39 35 26 20 17 13 14 9 357 360 2 353 351 353 348 343 337 337 341 339 336 336 338 341 340 339 333 325 324 323 312 310 329 336 328 325 324 314 331 331 321 335 338 283 282 288 301 307 283 296 302 302 309 313 313 310 311 317 317 312 314 318 320 321 321 320 321 322 322
92 89 85 79 71 69 69 69 71 68 62 60 69 78 81 80 72 63 53 42 36 30 23 22 18 8 2 357 355 357 355 350 346 343 343 337 333 338 337 333 333 333 335 333 332 335 327 319 324 318 315 330 334 320 319 321 317 325 327 327 340 348 303 296 293 302 302 277 298 302 304 308 303 300 313 318 317 313 315 320 321 322 322 322 321 322 322 322
89 86 83 79 73 68 68 70 65 58 53 54 71 81 81 77 74 65 55 45 35 30 22 19 17 5 1 357 350 352 354 350 345 342 341 337 333 335 334 330 331 329 328 328 326 331 331 315 306 310 320 330 328 308 308 314 311 315 320 323 327 326 299 295 291 281 283 293 302 305 307 306 304 310 316 318 315 317 321 323 323 323 322 321 322 322 322 322
81 81 79 77 74 67 62 64 61 57 62 70 75 83 83 77 71 60 53 44 32 29 22 16 12 4 1 358 351 350 350 348 345 339 335 335 334 334 332 329 329 325 322 324 322 324 333 318 287 306 327 332 315 299 303 306 303 306 312 306 305 312 315 308 292 264 258 299 306 310 305 295 308 318 316 312 316 321 324 324 323 323 323 323 324 323 323 322
77 79 77 76 79 73 64 64 65 65 73 77 77 80 80 75 66 57 49 38 29 24 17 11 7 2 360 357 353 350 348 346 345 340 335 334 335 333 328 325 324 322 318 319 321 324 330 318 293 308 327 326 310 305 307 305 298 301 306 296 291 306 322 328 300 255 268 301 296 299 288 294 309 322 315 313 318 321 325 325 323 323 325 326 325 324 322 323
78 80 78 78 79 73 68 70 72 71 75 78 78 76 75 71 62 54 42 31 25 17 11 7 3 1 359 356 354 349 346 346 346 342 335 333 333 330 326 324 322 319 316 315 319 323 324 318 307 314 323 318 309 311 311 304 296 303 310 301 295 303 311 319 298 279 295 301 297 293 276 293 311 322 315 317 321 323 326 325 321 324 327 326 325 324 323 324
81 78 76 75 76 74 73 74 74 73 75 77 76 72 70 64 55 47 36 28 20 11 7 4 1 0 358 355 353 349 347 346 344 341 336 333 333 331 327 325 320 316 314 311 313 319 321 322 319 319 321 315 309 315 318 313 310 316 318 310 303 304 306 308 302 295 297 295 299 297 270 292 310 319 317 319 322 324 326 325 322 326 327 326 324 324 325 326
79 78 76 74 75 79 80 76 74 72 72 73 72 69 64 57 48 38 29 23 16 11 5 1 0 359 356 354 351 349 347 345 341 340 339 334 332 332 329 325 321 316 314 311 312 317 320 322 322 322 326 327 325 330 328 322 318 316 312 305 301 301 302 305 305 300 293 295 303 297 274 296 311 320 320 321 324 326 325 323 325 328 327 326 325 325 326 327
76 79 81 79 78 80 80 77 73 69 68 69 67 64 58 50 42 32 24 18 13 10 4 360 358 355 353 351 348 347 346 343 340 338 338 335 332 332 329 325 321 316 313 311 309 311 312 315 319 313 306 319 316 314 318 314 309 308 305 300 298 298 298 300 301 292 290 303 303 286 282 300 314 322 323 324 327 326 323 323 327 329 327 327 326 325 327 329
79 80 82 83 80 77 76 75 71 67 65 63 60 58 52 44 38 29 21 14 9 6 2 358 355 352 350 347 345 344 343 342 340 337 336 335 333 331 328 324 320 315 312 309 307 308 308 310 312 294 276 289 302 308 314 309 302 307 308 300 295 294 295 296 291 287 299 305 300 294 296 303 312 320 323 325 326 323 322 326 328 329 329 330 328 326 329 331
86 84 81 81 79 74 72 72 69 65 61 57 55 53 47 39 32 25 18 11 6 3 359 356 354 350 348 346 344 343 341 338 336 336 336 334 331 329 326 322 319 315 311 307 306 306 304 306 309 297 286 297 310 314 315 308 305 310 307 297 292 291 291 289 281 293 307 303 295 306 312 307 309 317 322 323 322 320 323 327 329 330 330 329 329 330 331 331
82 82 78 77 77 72 69 67 64 60 56 52 48 44 40 34 27 20 14 9 4 0 356 355 353 349 347 345 343 340 337 335 334 336 336 333 330 328 325 322 318 315 311 307 304 304 304 306 310 304 296 305 316 318 315 314 314 311 304 296 291 288 288 287 288 303 311 296 293 309 314 307 309 317 321 320 319 320 324 327 328 330 332 330 331 334 333 331
75 75 72 70 70 68 64 61 58 55 51 46 42 37 34 29 22 16 10 5 2 358 354 353 351 348 347 345 341 338 336 334 333 334 334 332 330 328 324 321 319 316 312 308 305 304 305 307 310 308 305 312 323 324 318 320 318 312 306 298 290 287 286 286 297 309 310 300 302 310 309 307 313 319 317 315 317 321 325 328 328 331 335 336 335 334 332 331
67 67 64 61 60 60 58 55 52 49 46 43 38 32 28 23 18 13 7 2 359 356 354 351 349 348 346 343 340 337 336 333 330 331 331 330 329 328 324 320 319 316 312 309 305 303 306 307 310 312 310 316 328 325 315 320 319 313 309 299 289 291 288 284 297 309 311 311 315 315 309 309 317 318 312 313 319 324 327 329 331 334 337 338 336 335 333 334
60 60 58 53 52 53 52 49 47 43 39 37 33 27 24 19 14 11 5 360 357 355 353 350 348 346 344 342 340 337 335 333 329 329 329 328 328 328 323 319 317 313 309 307 302 302 306 305 310 317 313 316 325 322 318 325 322 312 311 308 301 299 291 287 295 305 313 318 319 316 312 313 317 314 312 317 323 326 328 331 336 339 338 335 333 334 335 337
55 54 52 48 45 46 47 43 40 38 34 31 27 23 19 15 12 8 3 359 356 355 353 349 347 344 343 342 341 338 336 333 330 329 329 329 328 328 324 320 318 313 308 306 302 302 303 304 312 319 311 313 323 324 324 328 320 305 314 316 308 300 290 288 294 305 318 323 320 314 313 315 315 314 317 322 325 327 329 331 335 339 338 335 334 335 337 339
Height
3128 3129 3130 3130 3131 3131 3132 3132 3133 3133 3133 3133 3132 3132 3131 3131 3131 3130 3130 3129 3129 3128 3128 3127 3126 3125 3125 3124 3124 3124 3123 3123 3123 3123 3122 3122 3121 3121 3120 3120 3119 3118 3118 3117 3117 3117 3117 3116 3116 3116 3116 3116 3117 3117 3117 3118 3118 3118 3117 3118 3118 3117 3116 3116 3116 3116 3115 3114 3113 3112 3111 3110 3109 3109 3109 3106 3102 3101 3102 3101 3100 3100 3099 3099 3098 3098 3097 3097
3129 3129 3130 3131 3132 3132 3133 3133 3133 3133 3133 3133 3133 3132 3132 3132 3131 3131 3130 3129 3129 3128 3127 3127 3126 3125 3125 3125 3124 3124 3124 3123 3123 3122 3122 3121 3121 3120 3120 3119 3119 3118 3118 3117 3117 3117 3116 3116 3116 3116 3116 3117 3117 3117 3117 3117 3117 3117 3117 3118 3117 3116 3116 3116 3115 3115 3114 3113 3112 3111 3109 3108 3107 3107 3106 3103 3101 3101 3101 3100 3099 3099 3098 3098 3098 3097 3096 3096
3129 3130 3131 3131 3132 3133 3133 3133 3133 3133 3133 3133 3133 3133 3132 3132 3131 3131 3130 3129 3129 3128 3127 3127 3126 3126 3125 3125 3125 3124 3124 3124 3123 3122 3122 3121 3121 3120 3120 3119 3119 3118 3118 3118 3117 3117 3116 3116 3116 3116 3116 3118 3118 3117 3117 3117 3117 3117 3117 3117 3116 3115 3116 3115 3114 3114 3113 3111 3110 3109 3107 3106 3105 3105 3104 3102 3101 3101 3100 3099 3099 3098 3098 3097 3097 3096 3095 3095
3130 3131 3131 3132 3133 3133 3134 3134 3134 3134 3134 3134 3133 3133 3132 3132 3131 3131 3130 3129 3129 3128 3128 3127 3127 3126 3126 3125 3125 3124 3124 3124 3123 3122 3122 3121 3121 3121 3120 3120 3119 3119 3118 3118 3117 3117 3116 3116 3116 3116 3116 3118 3118 3117 3117 3117 3117 3117 3116 3116 3116 3115 3115 3114 3114 3113 3111 3110 3109 3108 3106 3104 3104 3104 3103 3100 3100 3100 3099 3098 3098 3097 3097 3096 3095 3095 3094 3093
3131 3131 3132 3133 3133 3134 3134 3134 3134 3134 3134 3134 3134 3133 3133 3132 3131 3131 3130 3130 3129 3129 3128 3128 3127 3127 3126 3126 3125 3125 3124 3123 3123 3123 3122 3122 3121 3121 3121 3120 3119 3119 3118 3118 3118 3117 3117 3116 3116 3116 3117 3118 3117 3117 3117 3117 3117 3116 3116 3116 3115 3115 3114 3113 3113 3112 3111 3109 3108 3107 3105 3103 3103 3103 3102 3101 3100 3099 3098 3098 3097 3096 3095 3094 3093 3092 3091 3090
3131 3132 3133 3134 3134 3134 3135 3135 3135 3134 3134 3134 3134 3133 3133 3132 3132 3131 3131 3130 3130 3129 3128 3128 3127 3127 3126 3126 3125 3125 3124 3124 3124 3123 3123 3122 3122 3122 3121 3121 3120 3119 3119 3118 3118 3117 3116 3116 3116 3117 3118 3118 3117 3117 3117 3117 3117 3116 3116 3115 3115 3114 3113 3113 3112 3111 3110 3108 3107 3106 3104 3102 3101 3101 3101 3101 3099 3098 3098 3097 3096 3095 3094 3093 3092 3091 3089 3088
3132 3133 3133 3134 3135 3135 3135 3135 3135 3135 3135 3135 3134 3134 3133 3133 3132 3132 3131 3131 3130 3129 3129 3128 3127 3127 3127 3126 3126 3125 3124 3124 3124 3124 3123 3123 3123 3122 3121 3121 3120 3120 3119 3119 3118 3117 3117 3116 3117 3118 3118 3118 3117 3117 3117 3117 3117 3116 3115 3115 3114 3114 3113 3112 3111 3111 3109 3108 3106 3105 3104 3101 3100 3099 3099 3099 3099 3098 3097 3096 3095 3094 3093 3092 3090 3089 3088 3086
3133 3133 3134 3135 3135 3135 3136 3135 3135 3135 3135 3135 3134 3134 3133 3133 3133 3132 3132 3131 3130 3130 3129 3129 3128 3128 3127 3127 3126 3124 3125 3125 3125 3125 3124 3124 3123 3122 3122 3121 3121 3120 3120 3119 3118 3118 3117 3117 3117 3118 3118 3118 3118 3118 3118 3117 3116 3116 3115 3115 3114 3114 3113 3112 3111 3110 3109 3107 3106 3104 3103 3101 3100 3098 3097 3097 3097 3096 3095 3094 3093 3092 3091 3090 3089 3088 3086 3085
3133 3134 3135 3135 3135 3136 3136 3136 3136 3136 3136 3135 3135 3134 3134 3133 3133 3132 3132 3131 3131 3130 3130 3129 3129 3128 3128 3127 3126 3125 3126 3126 3126 3125 3125 3124 3124 3123 3122 3122 3121 3121 3120 3120 3119 3118 3118 3118 3118 3118 3118 3118 3118 3118 3118 3117 3116 3116 3116 3115 3114 3114 3113 3112 3110 3109 3108 3107 3106 3104 3102 3101 3100 3098 3097 3096 3095 3095 3094 3093 3092 3091 3090 3089 3088 3087 3085 3084
3134 3135 3135 3136 3136 3137 3137 3137 3137 3136 3136 3136 3135 3135 3134 3134 3133 3133 3133 3132 3131 3131 3130 3130 3130 3129 3128 3128 3127 3126 3127 3127 3126 3126 3125 3125 3124 3124 3123 3123 3122 3121 3121 3120 3120 3119 3119 3119 3119 3118 3118 3118 3118 3118 3118 3117 3117 3117 3116 3115 3114 3113 3113 3111 3110 3109 3108 3107 3106 3104 3102 3101 3099 3098 3096 3095 3094 3093 3092 3092 3091 3090 3089 3088 3087 3086 3084 3083
3134 3135 3136 3137 3137 3137 3137 3137 3137 3137 3137 3136 3136 3135 3135 3134 3134 3134 3133 3133 3132 3132 3131 3131 3130 3130 3129 3128 3128 3127 3128 3128 3127 3127 3126 3126 3125 3125 3124 3123 3123 3122 3122 3121 3121 3120 3120 3120 3119 3119 3119 3119 3119 3119 3118 3117 3117 3117 3116 3115 3114 3114 3113 3111 3110 3110 3109 3108 3107 3105 3102 3101 3100 3098 3096 3095 3094 3093 3092 3091 3089 3088 3087 3086 3085 3084 3083 3082
3135 3136 3137 3137 3137 3138 3138 3138 3138 3137 3137 3137 3136 3135 3135 3135 3135 3134 3134 3134 3133 3133 3132 3131 3131 3130 3129 3129 3129 3129 3129 3128 3128 3128 3127 3127 3126 3125 3125 3124 3124 3123 3123 3122 3122 3121 3121 3121 3120 3120 3119 3119 3119 3119 3118 3118 3117 3117 3116 3115 3114 3114 3113 3112 3111 3109 3108 3107 3107 3105 3102 3100 3098 3098 3096 3094 3093 3092 3091 3089 3088 3087 3085 3084 3083 3082 3081 3080
3136 3136 3137 3138 3138 3138 3138 3138 3138 3138 3137 3137 3136 3136 3136 3136 3135 3135 3135 3134 3134 3134 3133 3132 3132 3131 3130 3130 3130 3130 3130 3130 3129 3129 3128 3127 3127 3126 3126 3125 3125 3124 3124 3123 3123 3122 3122 3122 3121 3120 3120 3120 3119 3119 3119 3118 3117 3117 3116 3115 3115 3114 3113 3112 3112 3110 3108 3107 3106 3105 3103 3099 3097 3097 3095 3094 3092 3091 3090 3088 3087 3085 3083 3082 3081 3080 3079 3078
3136 3137 3138 3138 3138 3139 3139 3139 3139 3138 3138 3137 3137 3137 3136 3136 3136 3136 3135 3135 3135 3134 3134 3133 3133 3132 3132 3132 3131 3131 3131 3131 3130 3130 3129 3128 3128 3127 3126 3126 3126 3125 3125 3124 3123 3123 3123 3122 3121 3121 3120 3120 3119 3119 3119 3117 3117 3117 3116 3116 3115 3114 3113 3112 3111 3110 3108 3107 3105 3103 3102 3098 3095 3096 3095 3094 3092 3090 3088 3087 3085 3083 3081 3080 3079 3077 3077 3076
3137 3137 3138 3138 3139 3139 3139 3139 3139 3139 3138 3138 3138 3138 3137 3137 3137 3137 3136 3136 3136 3135 3135 3134 3134 3133 3133 3133 3133 3132 3132 3131 3131 3131 3130 3129 3129 3128 3127 3127 3127 3126 3125 3125 3124 3124 3123 3123 3122 3121 3120 3120 3119 3118 3118 3118 3117 3117 3116 3116 3115 3114 3113 3112 3110 3110 3108 3106 3105 3103 3100 3097 3095 3095 3094 3093 3091 3089 3087 3085 3083 3081 3079 3078 3077 3076 3074 3073
3137 3138 3139 3139 3139 3140 3140 3140 3139 3139 3139 3139 3139 3139 3138 3138 3138 3137 3137 3137 3136 3136 3136 3135 3134 3134 3134 3134 3134 3134 3133 3133 3132 3132 3131 3131 3130 3129 3129 3128 3127 3126 3126 3126 3125 3124 3124 3123 3122 3121 3120 3119 3118 3118 3118 3117 3117 3116 3116 3115 3114 3113 3112 3111 3110 3108 3107 3105 3104 3102 3099 3096 3094 3093 3093 3091 3090 3088 3086 3084 3082 3080 3078 3077 3075 3074 3073 3071
3138 3139 3139 3140 3140 3140 3140 3140 3140 3140 3140 3140 3140 3140 3139 3139 3139 3138 3138 3138 3137 3137 3136 3136 3136 3135 3135 3135 3135 3135 3135 3134 3134 3133 3133 3132 3131 3131 3130 3129 3128 3127 3127 3126 3125 3125 3124 3123 3122 3121 3120 3120 3119 3118 3117 3117 3116 3115 3115 3114 3113 3112 3111 3110 3108 3107 3106 3103 3101 3099 3097 3094 3093 3092 3091 3090 3088 3086 3085 3083 3081 3079 3077 3076 3074 3073 3072 3070
3139 3139 3140 3140 3141 3141 3141 3141 3141 3141 3141 3141 3141 3140 3140 3140 3139 3139 3139 3139 3138 3138 3137 3137 3137 3137 3137 3137 3137 3136 3136 3135 3135 3135 3134 3133 3133 3132 3131 3130 3128 3127 3126 3125 3125 3124 3123 3122 3121 3121 3120 3119 3118 3117 3117 3117 3116 3115 3114 3114 3112 3111 3110 3110 3107 3105 3104 3101 3099 3097 3094 3092 3091 3091 3089 3088 3087 3084 3083 3082 3080 3078 3076 3074 3073 3071 3070 3068
3139 3140 3140 3141 3141 3141 3141 3141 3142 3142 3142 3142 3141 3141 3140 3140 3140 3140 3140 3140 3140 3139 3139 3139 3139 3138 3138 3138 3137 3137 3137 3137 3136 3135 3135 3134 3133 3132 3131 3130 3128 3127 3126 3126 3125 3124 3123 3123 3121 3120 3119 3118 3117 3117 3117 3117 3117 3116 3115 3113 3112 3111 3110 3108 3106 3104 3101 3098 3097 3095 3093 3090 3089 3088 3087 3086 3085 3082 3081 3080 3078 3076 3074 3072 3071 3070 3068 3066
3140 3141 3141 3142 3142 3142 3142 3142 3143 3143 3143 3143 3143 3142 3141 3141 3142 3141 3142 3142 3141 3140 3140 3140 3140 3139 3139 3139 3138 3138 3138 3138 3136 3135 3135 3134 3133 3132 3131 3129 3128 3128 3127 3126 3125 3124 3123 3123 3121 3120 3120 3119 3119 3118 3118 3118 3117 3116 3114 3113 3112 3110 3108 3106 3104 3102 3099 3096 3094 3093 3091 3088 3087 3086 3085 3084 3082 3080 3079 3077 3075 3073 3071 3070 3068 3067 3065 3063
3141 3141 3142 3142 3143 3143 3143 3144 3144 3144 3144 3144 3144 3144 3143 3143 3144 3144 3144 3143 3142 3142 3142 3142 3141 3140 3140 3140 3139 3139 3138 3137 3136 3136 3135 3134 3133 3132 3131 3130 3129 3128 3127 3126 3125 3124 3123 3122 3121 3121 3121 3120 3120 3119 3118 3117 3116 3115 3113 3111 3111 3109 3105 3104 3102 3099 3097 3095 3092 3090 3088 3085 3085 3084 3082 3081 3079 3077 3076 3074 3073 3071 3069 3067 3066 3064 3062 3060
3141 3142 3143 3143 3144 3144 3145 3145 3145 3145 3145 3146 3146 3145 3145 3145 3146 3146 3145 3144 3144 3144 3143 3143 3142 3142 3141 3141 3140 3139 3138 3137 3137 3136 3135 3134 3133 3132 3131 3131 3130 3129 3127 3126 3125 3124 3123 3122 3122 3122 3121 3121 3120 3119 3118 3116 3115 3113 3112 3110 3109 3108 3103 3099 3099 3098 3096 3092 3088 3087 3085 3084 3083 3081 3080 3079 3077 3075 3073 3072 3070 3069 3067 3065 3063 3061 3059 3057
3142 3143 3143 3144 3145 3145 3146 3146 3146 3147 3147 3147 3147 3147 3147 3147 3147 3147 3146 3145 3145 3145 3144 3144 3144 3143 3142 3141 3141 3140 3139 3138 3137 3136 3135 3134 3134 3133 3132 3131 3130 3129 3128 3127 3126 3124 3123 3123 3123 3122 3121 3121 3119 3118 3117 3116 3114 3112 3111 3110 3108 3107 3103 3097 3095 3095 3094 3091 3087 3084 3082 3081 3081 3079 3078 3076 3074 3072 3071 3070 3068 3067 3065 3063 3061 3059 3057 3055
3143 3144 3144 3145 3146 3146 3147 3147 3148 3148 3148 3149 3149 3149 3149 3148 3148 3148 3147 3146 3146 3146 3146 3145 3145 3144 3143 3142 3141 3140 3139 3138 3138 3136 3135 3135 3134 3133 3132 3130 3129 3128 3127 3126 3125 3124 3123 3123 3123 3122 3121 3120 3118 3117 3116 3115 3113 3112 3111 3110 3107 3105 3104 3099 3094 3092 3090 3089 3085 3082 3080 3078 3078 3078 3076 3074 3072 3070 3068 3067 3066 3064 3063 3061 3059 3056 3053 3050
3144 3145 3146 3146 3147 3147 3148 3148 3149 3149 3150 3150 3150 3150 3149 3149 3149 3148 3148 3147 3147 3147 3147 3146 3146 3145 3144 3143 3142 3141 3139 3139 3138 3136 3135 3135 3134 3133 3131 3130 3129 3128 3127 3126 3125 3124 3124 3123 3122 3122 3120 3119 3117 3116 3115 3114 3113 3112 3111 3110 3108 3104 3101 3098 3094 3091 3087 3085 3083 3082 3081 3076 3075 3076 3073 3071 3070 3068 3066 3065 3063 3062 3060 3057 3055 3052 3048 3045
3145 3146 3147 3147 3148 3149 3149 3150 3150 3150 3150 3151 3151 3150 3150 3149 3149 3149 3148 3148 3147 3148 3147 3146 3146 3145 3144 3143 3142 3141 3140 3139 3138 3136 3136 3135 3134 3132 3131 3130 3128 3127 3127 3126 3125 3124 3123 3123 3122 3121 3120 3118 3118 3116 3115 3113 3112 3111 3110 3109 3107 3103 3099 3095 3093 3091 3087 3084 3082 3082 3082 3076 3073 3074 3072 3069 3068 3065 3064 3063 3061 3059 3057 3054 3051 3048 3045 3041
3146 3147 3148 3148 3149 3150 3150 3151 3151 3151 3151 3151 3151 3150 3150 3149 3149 3149 3148 3148 3149 3149 3148 3147 3147 3146 3145 3144 3142 3141 3140 3139 3138 3137 3136 3135 3134 3132 3131 3130 3128 3127 3126 3125 3125 3124 3123 3123 3122 3121 3119 3118 3117 3115 3114 3113 3111 3110 3108 3107 3104 3100 3096 3092 3091 3089 3087 3084 3080 3080 3081 3076 3072 3072 3070 3067 3065 3063 3062 3061 3059 3057 3054 3051 3048 3045 3042 3038
3148 3148 3149 3150 3150 3151 3151 3151 3151 3152 3151 3151 3151 3150 3150 3149 3149 3149 3149 3150 3151 3150 3149 3148 3147 3146 3145 3144 3143 3141 3140 3139 3138 3137 3136 3135 3133 3132 3131 3130 3129 3127 3126 3126 3125 3124 3123 3122 3122 3120 3119 3118 3116 3115 3113 3112 3110 3108 3106 3104 3101 3097 3093 3090 3089 3087 3085 3084 3081 3079 3079 3076 3071 3069 3068 3066 3064 3062 3061 3060 3058 3055 3051 3049 3046 3043 3039 3035
3149 3150 3150 3151 3151 3152 3152 3152 3152 3152 3151 3151 3151 3150 3150 3150 3150 3150 3149 3151 3152 3151 3150 3149 3148 3147 3146 3144 3143 3142 3141 3140 3138 3137 3136 3135 3133 3132 3131 3130 3129 3128 3127 3126 3125 3125 3123 3122 3122 3120 3119 3118 3117 3115 3113 3111 3109 3107 3104 3101 3098 3095 3091 3088 3086 3085 3084 3084 3082 3078 3077 3076 3070 3067 3066 3065 3064 3063 3061 3059 3056 3053 3049 3047 3044 3039 3034 3030
3150 3151 3151 3152 3152 3152 3152 3152 3152 3152 3151 3151 3151 3151 3151 3150 3150 3150 3150 3151 3152 3151 3150 3149 3148 3147 3146 3145 3144 3142 3141 3140 3139 3137 3136 3135 3133 3132 3131 3130 3129 3128 3127 3126 3126 3125 3124 3122 3121 3120 3118 3117 3116 3115 3112 3110 3108 3105 3102 3098 3094 3091 3088 3085 3084 3084 3083 3082 3079 3076 3077 3077 3072 3066 3064 3064 3063 3062 3060 3058 3054 3050 3047 3044 3039 3033 3029 3024
3151 3151 3152 3152 3153 3153 3153 3152 3152 3152 3151 3151 3151 3151 3151 3151 3150 3150 3151 3152 3152 3151 3151 3150 3149 3148 3147 3146 3144 3143 3142 3141 3140 3138 3137 3135 3134 3132 3131 3130 3128 3127 3127 3127 3126 3125 3123 3122 3121 3119 3118 3117 3115 3114 3111 3109 3107 3104 3102 3097 3091 3087 3084 3083 3083 3083 3082 3080 3077 3075 3075 3075 3071 3065 3064 3062 3061 3059 3056 3053 3049 3046 3043 3040 3036 3031 3026 3022
3152 3152 3152 3153 3153 3153 3153 3153 3152 3152 3152 3152 3152 3151 3151 3151 3151 3151 3152 3152 3152 3151 3151 3150 3150 3149 3148 3147 3145 3144 3143 3142 3141 3139 3138 3136 3135 3133 3132 3131 3129 3129 3129 3127 3126 3125 3123 3121 3120 3119 3118 3116 3114 3112 3110 3108 3106 3104 3102 3098 3093 3088 3085 3084 3083 3082 3080 3078 3077 3076 3074 3071 3068 3064 3062 3060 3058 3056 3052 3049 3046 3043 3041 3037 3034 3029 3024 3019
3152 3152 3153 3153 3153 3153 3153 3153 3153 3153 3153 3152 3152 3152 3151 3151 3152 3153 3153 3152 3152 3152 3152 3151 3151 3150 3149 3148 3146 3145 3144 3143 3142 3140 3139 3137 3136 3135 3134 3133 3132 3131 3130 3128 3126 3124 3122 3120 3119 3118 3117 3115 3114 3111 3109 3107 3106 3104 3102 3099 3098 3096 3094 3091 3086 3082 3079 3074 3073 3075 3073 3069 3066 3063 3061 3059 3056 3053 3049 3047 3045 3042 3038 3034 3029 3025 3019 3014
3153 3153 3153 3154 3154 3154 3154 3154 3154 3154 3154 3153 3153 3152 3152 3152 3153 3154 3154 3153 3153 3153 3153 3152 3152 3151 3150 3148 3147 3146 3144 3143 3142 3141 3140 3138 3136 3135 3135 3134 3133 3132 3130 3128 3126 3125 3123 3121 3119 3118 3116 3115 3113 3111 3109 3107 3106 3104 3103 3102 3101 3101 3101 3096 3088 3085 3081 3073 3070 3071 3070 3067 3065 3062 3060 3058 3055 3052 3048 3046 3043 3039 3035 3031 3025 3020 3014 3009
3153 3154 3154 3155 3155 3155 3155 3155 3155 3155 3154 3154 3153 3153 3152 3153 3154 3155 3155 3154 3154 3154 3154 3153 3152 3151 3150 3149 3148 3146 3145 3144 3142 3141 3139 3138 3136 3135 3134 3133 3132 3131 3130 3128 3127 3125 3124 3122 3119 3118 3116 3114 3113 3111 3109 3107 3106 3105 3103 3102 3101 3100 3099 3095 3088 3085 3083 3076 3069 3068 3066 3065 3064 3060 3057 3055 3053 3052 3049 3044 3040 3036 3031 3026 3020 3015 3010 3005
3154 3155 3155 3156 3156 3156 3156 3156 3155 3155 3155 3154 3154 3153 3153 3154 3155 3155 3156 3155 3155 3155 3154 3153 3152 3151 3150 3149 3148 3146 3145 3144 3142 3140 3138 3137 3136 3135 3134 3133 3132 3131 3130 3128 3127 3125 3123 3121 3118 3117 3115 3114 3112 3110 3108 3107 3105 3104 3102 3100 3099 3097 3095 3092 3087 3084 3083 3077 3069 3065 3063 3061 3060 3057 3054 3053 3051 3048 3045 3040 3036 3032 3027 3021 3016 3011 3006 3000
3156 3156 3156 3156 3156 3156 3156 3156 3156 3155 3155 3154 3154 3154 3155 3156 3156 3157 3156 3156 3156 3155 3154 3153 3151 3150 3149 3148 3147 3146 3145 3143 3142 3140 3138 3137 3136 3135 3135 3133 3132 3131 3130 3128 3127 3125 3123 3120 3117 3116 3114 3113 3111 3108 3106 3105 3104 3102 3101 3099 3097 3095 3093 3091 3087 3082 3081 3077 3067 3062 3061 3059 3058 3054 3051 3050 3048 3044 3040 3036 3032 3027 3022 3016 3010 3006 3000 2995
3157 3157 3157 3157 3157 3157 3157 3157 3156 3156 3155 3155 3155 3155 3156 3157 3157 3157 3157 3157 3156 3155 3154 3153 3152 3151 3150 3148 3147 3146 3145 3143 3142 3141 3140 3138 3137 3136 3135 3133 3132 3131 3130 3128 3127 3125 3123 3118 3116 3115 3114 3111 3109 3107 3105 3103 3101 3100 3099 3097 3096 3094 3092 3091 3089 3084 3082 3077 3067 3059 3057 3057 3056 3052 3050 3048 3044 3040 3036 3032 3027 3022 3017 3012 3006 3000 2995 2990
3158 3158 3158 3158 3158 3158 3158 3157 3157 3156 3156 3156 3156 3157 3158 3158 3158 3158 3158 3157 3156 3156 3155 3153 3152 3151 3150 3149 3148 3147 3146 3144 3143 3142 3140 3139 3137 3136 3135 3133 3132 3131 3129 3128 3126 3125 3123 3120 3115 3114 3114 3111 3108 3107 3105 3102 3101 3099 3097 3095 3094 3095 3093 3090 3088 3084 3082 3078 3069 3060 3052 3051 3053 3051 3048 3045 3040 3037 3033 3028 3023 3018 3013 3009 3002 2996 2991 2985
3160 3160 3159 3159 3159 3159 3159 3158 3157 3157 3157 3157 3157 3158 3159 3159 3159 3159 3158 3158 3157 3156 3155 3154 3153 3152 3151 3150 3149 3147 3146 3145 3144 3142 3141 3140 3138 3136 3134 3133 3132 3130 3129 3127 3126 3124 3123 3120 3115 3111 3112 3111 3108 3106 3104 3102 3100 3097 3096 3094 3092 3093 3091 3088 3085 3081 3081 3078 3074 3066 3051 3042 3049 3050 3045 3042 3038 3035 3031 3024 3019 3014 3009 3004 2999 2993 2987 2982
3161 3161 3160 3160 3160 3160 3160 3159 3159 3159 3158 3158 3159 3159 3159 3159 3159 3159 3159 3158 3157 3157 3156 3155 3154 3153 3152 3151 3149 3148 3147 3145 3144 3142 3141 3139 3138 3136 3134 3132 3131 3130 3128 3126 3125 3123 3121 3119 3114 3110 3109 3108 3106 3105 3103 3101 3099 3096 3095 3093 3090 3090 3088 3086 3083 3079 3079 3077 3075 3073 3054 3036 3043 3049 3043 3040 3037 3032 3028 3022 3015 3011 3005 3000 2994 2989 2984 2978
3162 3162 3161 3161 3161 3161 3161 3160 3160 3160 3159 3159 3160 3160 3160 3160 3160 3160 3159 3159 3158 3157 3157 3156 3155 3154 3152 3151 3150 3148 3146 3145 3143 3142 3141 3139 3138 3136 3133 3132 3130 3129 3127 3125 3124 3122 3120 3117 3113 3109 3107 3106 3104 3103 3101 3099 3097 3094 3093 3090 3088 3088 3085 3085 3083 3077 3076 3074 3072 3073 3055 3035 3040 3047 3041 3038 3034 3028 3024 3019 3013 3007 3001 2995 2990 2985 2980 2974
3163 3162 3162 3163 3162 3162 3162 3162 3161 3161 3160 3160 3160 3161 3161 3161 3160 3160 3160 3159 3159 3158 3157 3156 3155 3154 3153 3151 3150 3148 3146 3144 3143 3142 3140 3138 3137 3135 3133 3131 3129 3127 3126 3124 3123 3121 3119 3116 3112 3107 3105 3103 3102 3101 3098 3097 3096 3092 3089 3087 3086 3085 3083 3083 3081 3076 3073 3071 3069 3068 3052 3033 3037 3043 3037 3034 3031 3025 3021 3016 3010 3004 2997 2991 2986 2980 2975 2970
3164 3164 3164 3164 3164 3163 3163 3163 3162 3162 3161 3161 3161 3162 3161 3161 3161 3161 3160 3160 3159 3158 3157 3156 3155 3154 3152 3151 3149 3148 3146 3144 3142 3140 3139 3137 3135 3134 3132 3130 3128 3126 3125 3123 3121 3120 3118 3116 3113 3108 3104 3101 3099 3098 3096 3095 3094 3091 3088 3085 3083 3082 3081 3079 3078 3074 3071 3067 3067 3065 3048 3030 3031 3034 3032 3030 3027 3021 3017 3012 3007 3001 2994 2988 2982 2976 2971 2965
3166 3166 3165 3165 3165 3165 3164 3163 3164 3163 3162 3162 3163 3163 3162 3162 3162 3161 3161 3160 3159 3158 3157 3156 3155 3153 3152 3151 3149 3148 3146 3145 3142 3140 3139 3137 3135 3133 3130 3128 3127 3125 3123 3122 3120 3118 3117 3115 3114 3111 3108 3105 3101 3099 3097 3094 3093 3090 3087 3084 3080 3079 3078 3077 3075 3073 3068 3063 3063 3061 3047 3030 3025 3026 3025 3024 3021 3015 3011 3007 3002 2998 2992 2986 2979 2972 2967 2961
3168 3168 3167 3167 3167 3167 3165 3164 3165 3164 3164 3164 3164 3163 3163 3163 3162 3162 3161 3160 3159 3158 3157 3156 3155 3153 3152 3150 3149 3147 3146 3144 3143 3140 3138 3136 3134 3131 3129 3127 3125 3123 3122 3120 3118 3117 3115 3113 3113 3111 3108 3106 3103 3100 3097 3094 3091 3088 3085 3082 3078 3076 3075 3074 3073 3070 3067 3061 3055 3053 3047 3033 3022 3020 3020 3018 3016 3011 3006 3002 2997 2992 2987 2982 2976 2969 2964 2958
3170 3169 3169 3169 3168 3168 3167 3166 3166 3165 3165 3165 3165 3164 3164 3163 3163 3162 3161 3161 3159 3158 3157 3156 3154 3153 3151 3150 3148 3146 3145 3143 3142 3140 3137 3135 3132 3130 3128 3126 3124 3122 3120 3119 3117 3115 3113 3111 3110 3108 3106 3104 3101 3097 3095 3093 3089 3085 3083 3080 3076 3073 3071 3071 3070 3067 3065 3060 3048 3043 3044 3035 3022 3019 3017 3015 3012 3007 3002 2997 2992 2986 2982 2978 2972 2966 2960 2955
3171 3171 3171 3170 3170 3169 3168 3167 3167 3167 3166 3166 3166 3165 3165 3164 3163 3163 3162 3161 3159 3158 3157 3156 3154 3153 3151 3150 3147 3146 3144 3142 3140 3138 3136 3133 3131 3129 3126 3124 3122 3120 3119 3117 3115 3114 3112 3108 3107 3105 3103 3101 3099 3095 3091 3090 3086 3082 3080 3077 3074 3070 3068 3067 3067 3064 3062 3058 3047 3039 3039 3033 3023 3019 3016 3012 3009 3004 2998 2994 2989 2984 2979 2973 2967 2962 2956 2951
3174 3173 3173 3172 3171 3171 3170 3169 3169 3168 3168 3167 3166 3166 3165 3164 3164 3163 3162 3161 3159 3158 3157 3155 3154 3153 3151 3150 3148 3145 3143 3140 3138 3136 3134 3132 3129 3127 3124 3122 3121 3119 3117 3116 3114 3112 3110 3107 3105 3103 3099 3097 3096 3092 3089 3087 3083 3079 3077 3074 3071 3068 3065 3064 3063 3061 3058 3054 3048 3042 3036 3029 3024 3020 3015 3010 3006 3002 2996 2991 2987 2981 2975 2968 2962 2957 2952 2947
3176 3175 3175 3174 3173 3172 3171 3171 3170 3170 3169 3168 3167 3167 3166 3165 3164 3163 3162 3160 3159 3158 3157 3155 3154 3153 3151 3149 3147 3145 3143 3140 3137 3135 3132 3130 3128 3126 3123 3121 3119 3117 3116 3114 3112 3111 3108 3105 3104 3100 3095 3093 3092 3090 3087 3085 3081 3076 3073 3071 3069 3066 3064 3062 3060 3058 3055 3049 3044 3040 3032 3024 3022 3019 3013 3008 3003 2998 2992 2987 2981 2976 2970 2964 2959 2954 2949 2944
3178 3177 3176 3176 3175 3173 3173 3172 3172 3171 3170 3169 3168 3167 3166 3165 3164 3163 3162 3160 3159 3158 3157 3155 3154 3152 3151 3149 3147 3144 3142 3140 3137 3134 3132 3129 3127 3125 3123 3120 3118 3116 3114 3113 3111 3109 3107 3104 3102 3099 3093 3090 3090 3088 3085 3082 3077 3073 3071 3069 3068 3066 3062 3060 3058 3056 3053 3046 3039 3033 3027 3020 3017 3014 3008 3004 2999 2993 2988 2982 2976 2971 2966 2962 2957 2952 2947 2941
3179 3178 3177 3177 3176 3175 3174 3174 3173 3172 3171 3170 3169 3168 3167 3166 3164 3163 3162 3160 3159 3158 3156 3155 3153 3151 3149 3147 3145 3143 3140 3138 3136 3133 3131 3128 3126 3124 3122 3119 3117 3115 3113 3112 3110 3108 3107 3104 3101 3099 3093 3087 3087 3086 3081 3078 3074 3070 3069 3068 3066 3064 3061 3058 3055 3053 3051 3046 3037 3030 3024 3018 3014 3010 3003 2998 2994 2989 2983 2979 2974 2968 2964 2960 2956 2950 2944 2938